sat.trackr.live / text

‹ back to catalog

STARLINK-3632

NORAD 51784 · 2022-017S

PAYLOAD ACTIVE UNKNOWN

§ Identity

Operator
Country
US
Launch date
2022-02-25
Launch site
AFWTR
Launch vehicle
Mass (kg)
RCS (m²)

Purposes: comms

External: N2YO · Heavens-Above · Gunter

§ Orbital elements

Epoch: 2026-09-20T04:14:13.753248Z

Period
93.85 min
Inclination
53.1609°
Eccentricity
0.0002101
Mean motion
15.34308567 rev/d
Perigee alt
461.5 km
Apogee alt
464.4 km
Semi-major
6,841.1 km
B*
6.9745e-4
RAAN
179.5728°
Arg perigee
74.1371°
Mean anomaly
285.9863°
Rev number
25,186

§ Raw data

STARLINK-36321 51784U 22017S   26263.17654807  .00023193  00000+0  69745-3 0  99952 51784  53.1609 179.5728 0002101  74.1371 285.9863 15.34308567251862

JSON: /api/v1/satellites/51784 · /tle

For live sub-satellite position, see the globe view (requires WebGL).

§ Visibility from observer

Set your observer location to see the next 7 days of passes ≥ 10°. The values pass through the URL so the page stays shareable.

No JS? Fill the form by hand. The geolocation button needs JavaScript.